Location: Mohawk View
(42.7837°N, 73.7885°W)
Time: 09:19:26
(UTC+00:00)

Meteor 1-24 Rocket - Pass Details

Date: 28 October 2021
Orbit: 790 x 927 km, 81.3° (Epoch: 27 November)

Event Time Altitude Azimuth Distance (km) Brightness Sun altitude
Rises 08:33:13 0° 140° (SE) 3,293 7.1 -31.9°
Reaches altitude 10° 08:36:29 10° 119° (ESE) 2,385 6.6 -31.3°
Maximum altitude 08:39:36 16° 83° (E) 2,027 6.4 -30.7°
Drops below altitude 10° 08:42:46 10° 48° (NE) 2,437 6.8 -30.2°
Sets 08:46:08 0° 27° (NNE) 3,404 7.3 -29.6°
